| time (UTC) | temp F | wind direction | speed knots | gust knots | rain 1hr in | rain 24hr in | rain mn in | humidity % | barometer mb |
| 20260505051705 | 64 | 107 | 0.0 | 0.0 | 0.00 | 0.00 | 0.00 | 79 | 1013.2 |
| 20260505051204 | 64 | 107 | 0.0 | 0.9 | 0.00 | 0.00 | 0.00 | 79 | 1013.3 |
| 20260505050704 | 64 | 107 | 0.0 | 0.9 | 0.00 | 0.00 | 0.00 | 78 | 1013.2 |
| 20260505050204 | 64 | 107 | 0.0 | 0.9 | 0.00 | 0.00 | 0.00 | 78 | 1013.1 |
| 20260505041635 | 65 | 254 | 0.0 | 0.9 | 0.00 | 0.00 | 0.00 | 75 | 1013.1 |
| 20260505041135 | 65 | 254 | 0.0 | 0.9 | 0.00 | 0.00 | 0.00 | 75 | 1013.2 |
| 20260505040634 | 65 | 259 | 0.0 | 0.9 | 0.00 | 0.00 | 0.00 | 74 | 1013.1 |
| 20260505040135 | 65 | 123 | 0.0 | 0.9 | 0.00 | 0.00 | 0.00 | 74 | 1013.2 |
| 20260505035635 | 65 | 123 | 0.0 | 0.9 | 0.00 | 0.00 | 0.00 | 74 | 1013.1 |
| 20260505035450 | 65 | 123 | 0.0 | 0.0 | 0.00 | 0.00 | 0.00 | 74 | 1013.3 |
| 20260505034632 | 65 | 123 | 0.0 | 0.0 | 0.00 | 0.00 | 0.00 | 74 | 1013.1 |
| 20260505034133 | 65 | 123 | 0.0 | 2.6 | 0.00 | 0.00 | 0.00 | 73 | 1013.2 |
| 20260505033633 | 66 | 123 | 0.0 | 2.6 | 0.00 | 0.00 | 0.00 | 73 | 1013.2 |
| 20260505033133 | 66 | 170 | 0.0 | 1.7 | 0.00 | 0.00 | 0.00 | 72 | 1013.2 |
| 20260505032634 | 67 | 184 | 0.0 | 0.0 | 0.00 | 0.00 | 0.00 | 71 | 1013.2 |
| 20260505032133 | 67 | 184 | 0.0 | 0.9 | 0.00 | 0.00 | 0.00 | 71 | 1013.3 |
| 20260505032121 | 67 | 184 | 0.0 | 0.9 | 0.00 | 0.00 | 0.00 | 70 | 1013.1 |
| 20260505031130 | 67 | 184 | 0.0 | 0.9 | 0.00 | 0.00 | 0.00 | 70 | 1013.2 |
| 20260505030631 | 67 | 132 | 0.0 | 0.9 | 0.00 | 0.00 | 0.00 | 70 | 1013.2 |
| 20260505030128 | 67 | 107 | 0.0 | 0.9 | 0.00 | 0.00 | 0.00 | 69 | 1013.1 |
| 20260505025628 | 67 | 107 | 0.0 | 0.9 | 0.00 | 0.00 | 0.00 | 69 | 1013.2 |
| 20260505025128 | 68 | 107 | 0.0 | 2.6 | 0.00 | 0.00 | 0.00 | 68 | 1013.1 |
| 20260505024628 | 68 | 107 | 0.0 | 2.6 | 0.00 | 0.00 | 0.00 | 68 | 1012.9 |
| 20260505024128 | 68 | 109 | 0.0 | 1.7 | 0.00 | 0.00 | 0.00 | 67 | 1012.8 |
| 20260505023624 | 68 | 228 | 0.0 | 0.9 | 0.00 | 0.00 | 0.00 | 67 | 1012.9 |
| 20260505023124 | 68 | 228 | 0.0 | 0.9 | 0.00 | 0.00 | 0.00 | 67 | 1012.7 |
| 20260505022624 | 68 | 228 | 0.0 | 0.9 | 0.00 | 0.00 | 0.00 | 66 | 1012.8 |
| 20260505022123 | 69 | 228 | 0.0 | 0.9 | 0.00 | 0.00 | 0.00 | 66 | 1012.6 |
| 20260505021624 | 69 | 229 | 0.0 | 0.9 | 0.00 | 0.00 | 0.00 | 65 | 1012.6 |
| 20260505021124 | 69 | 229 | 0.0 | 1.7 | 0.00 | 0.00 | 0.00 | 64 | 1012.8 |
| 20260505020624 | 70 | 229 | 0.0 | 2.6 | 0.00 | 0.00 | 0.00 | 64 | 1012.7 |
| 20260505020604 | 70 | 229 | 0.0 | 2.6 | 0.00 | 0.00 | 0.00 | 63 | 1012.7 |
| 20260505015624 | 70 | 201 | 0.0 | 3.5 | 0.00 | 0.00 | 0.00 | 63 | 1012.7 |
| 20260505015124 | 70 | 185 | 0.0 | 3.5 | 0.00 | 0.00 | 0.00 | 62 | 1012.5 |
| 20260505015028 | 70 | 206 | 0.0 | 1.7 | 0.00 | 0.00 | 0.00 | 62 | 1012.4 |
| 20260505014601 | 71 | 198 | 0.0 | 2.6 | 0.00 | 0.00 | 0.00 | 61 | 1012.5 |
| 20260505013621 | 71 | 100 | 0.0 | 3.5 | 0.00 | 0.00 | 0.00 | 60 | 1012.5 |
| 20260505013119 | 71 | 180 | 0.9 | 3.5 | 0.00 | 0.00 | 0.00 | 60 | 1012.5 |
| 20260505012619 | 71 | 177 | 0.0 | 2.6 | 0.00 | 0.00 | 0.00 | 59 | 1012.4 |
| 20260505012118 | 72 | 200 | 0.0 | 4.3 | 0.00 | 0.00 | 0.00 | 58 | 1012.3 |
| 20260505011616 | 72 | 209 | 0.9 | 5.2 | 0.00 | 0.00 | 0.00 | 58 | 1012.2 |
| 20260505011116 | 72 | 181 | 0.9 | 5.2 | 0.00 | 0.00 | 0.00 | 57 | 1012.2 |
| 20260505010616 | 72 | 218 | 0.0 | 1.7 | 0.00 | 0.00 | 0.00 | 56 | 1012.1 |
| 20260505010116 | 72 | 192 | 0.9 | 3.5 | 0.00 | 0.00 | 0.00 | 56 | 1012.2 |
| 20260505005613 | 73 | 200 | 0.9 | 3.5 | 0.00 | 0.00 | 0.00 | 55 | 1012.3 |
| 20260505005114 | 73 | 232 | 0.9 | 3.5 | 0.00 | 0.00 | 0.00 | 54 | 1012.3 |
| 20260505005056 | 73 | 210 | 0.9 | 3.5 | 0.00 | 0.00 | 0.00 | 54 | 1012.0 |
| 20260505004112 | 73 | 211 | 0.9 | 3.5 | 0.00 | 0.00 | 0.00 | 53 | 1012.1 |
| 20260505003610 | 74 | 221 | 0.9 | 3.5 | 0.00 | 0.00 | 0.00 | 52 | 1012.1 |
| 20260505003106 | 74 | 221 | 0.9 | 4.3 | 0.00 | 0.00 | 0.00 | 51 | 1012.2 |
| 20260505002606 | 74 | 244 | 1.7 | 4.3 | 0.00 | 0.00 | 0.00 | 51 | 1012.3 |
| 20260505002106 | 74 | 221 | 0.9 | 4.3 | 0.00 | 0.00 | 0.00 | 51 | 1012.5 |
| 20260505001606 | 74 | 216 | 0.9 | 3.5 | 0.00 | 0.00 | 0.00 | 51 | 1012.4 |
| 20260505001104 | 75 | 213 | 0.9 | 3.5 | 0.00 | 0.00 | 0.00 | 50 | 1012.5 |
| 20260505000605 | 75 | 207 | 0.9 | 6.1 | 0.00 | 0.00 | 0.00 | 50 | 1012.6 |
| 20260505000104 | 76 | 206 | 0.9 | 6.1 | 0.00 | 0.00 | 0.00 | 49 | 1012.7 |
| 20260504235605 | 76 | 115 | 0.9 | 3.5 | 0.00 | 0.00 | 0.00 | 50 | 1012.8 |
| 20260504235106 | 76 | 221 | 0.9 | 7.0 | 0.00 | 0.00 | 0.00 | 50 | 1012.8 |
| 20260504234606 | 76 | 166 | 1.7 | 7.0 | 0.00 | 0.00 | 0.00 | 49 | 1012.9 |
| 20260504234104 | 76 | 187 | 0.9 | 4.3 | 0.00 | 0.00 | 0.00 | 49 | 1012.9 |
| 20260504233604 | 76 | 157 | 0.9 | 3.5 | 0.00 | 0.00 | 0.00 | 49 | 1012.8 |
| 20260504233105 | 76 | 202 | 0.9 | 5.2 | 0.00 | 0.00 | 0.00 | 49 | 1012.8 |
| 20260504232605 | 77 | 179 | 1.7 | 5.2 | 0.00 | 0.00 | 0.00 | 47 | 1012.8 |
| 20260504232105 | 77 | 178 | 1.7 | 5.2 | 0.00 | 0.00 | 0.00 | 47 | 1012.9 |
| 20260504231604 | 77 | 239 | 0.9 | 5.2 | 0.00 | 0.00 | 0.00 | 47 | 1013.0 |
| 20260504231101 | 77 | 175 | 1.7 | 5.2 | 0.00 | 0.00 | 0.00 | 47 | 1012.9 |
| 20260504230555 | 77 | 111 | 1.7 | 6.1 | 0.00 | 0.00 | 0.00 | 46 | 1013.0 |
| 20260504230049 | 78 | 210 | 1.7 | 7.0 | 0.00 | 0.00 | 0.00 | 46 | 1012.9 |
| 20260504225548 | 78 | 231 | 0.9 | 7.0 | 0.00 | 0.00 | 0.00 | 46 | 1012.9 |
| 20260504225049 | 78 | 197 | 1.7 | 5.2 | 0.00 | 0.00 | 0.00 | 45 | 1013.0 |
| 20260504225041 | 78 | 167 | 1.7 | 6.1 | 0.00 | 0.00 | 0.00 | 46 | 1013.1 |
| 20260504224044 | 79 | 212 | 1.7 | 6.1 | 0.00 | 0.00 | 0.00 | 45 | 1013.3 |
| 20260504223544 | 79 | 92 | 0.9 | 3.5 | 0.00 | 0.00 | 0.00 | 46 | 1013.2 |
| 20260504223044 | 79 | 203 | 1.7 | 6.1 | 0.00 | 0.00 | 0.00 | 46 | 1013.3 |
| 20260504222541 | 79 | 279 | 1.7 | 10.4 | 0.00 | 0.00 | 0.00 | 45 | 1013.2 |
| 20260504222043 | 80 | 189 | 0.9 | 10.4 | 0.00 | 0.00 | 0.00 | 45 | 1013.2 |
| 20260504222034 | 80 | 132 | 0.9 | 5.2 | 0.00 | 0.00 | 0.00 | 46 | 1013.3 |
| 20260504221039 | 80 | 202 | 1.7 | 5.2 | 0.00 | 0.00 | 0.00 | 44 | 1013.3 |
| 20260504220540 | 80 | 90 | 0.9 | 4.3 | 0.00 | 0.00 | 0.00 | 45 | 1013.4 |
| 20260504220039 | 80 | 136 | 0.9 | 4.3 | 0.00 | 0.00 | 0.00 | 46 | 1013.4 |
| 20260504215537 | 81 | 87 | 1.7 | 6.1 | 0.00 | 0.00 | 0.00 | 45 | 1013.5 |
| 20260504215037 | 80 | 184 | 1.7 | 7.0 | 0.00 | 0.00 | 0.00 | 44 | 1013.7 |
| 20260504215023 | 80 | 217 | 0.9 | 7.0 | 0.00 | 0.00 | 0.00 | 46 | 1013.6 |
| 20260504214036 | 80 | 98 | 1.7 | 6.1 | 0.00 | 0.00 | 0.00 | 47 | 1013.6 |
| 20260504213536 | 80 | 186 | 1.7 | 6.1 | 0.00 | 0.00 | 0.00 | 44 | 1013.7 |
| 20260504213521 | 80 | 122 | 1.7 | 5.2 | 0.00 | 0.00 | 0.00 | 47 | 1013.6 |
| 20260504212534 | 80 | 214 | 1.7 | 5.2 | 0.00 | 0.00 | 0.00 | 45 | 1013.6 |
| 20260504212033 | 80 | 214 | 1.7 | 7.0 | 0.00 | 0.00 | 0.00 | 44 | 1013.7 |
| 20260504211532 | 80 | 174 | 2.6 | 9.6 | 0.00 | 0.00 | 0.00 | 45 | 1013.7 |
| 20260504211032 | 80 | 219 | 1.7 | 9.6 | 0.00 | 0.00 | 0.00 | 45 | 1013.7 |
| 20260504210532 | 80 | 203 | 0.9 | 3.5 | 0.00 | 0.00 | 0.00 | 45 | 1013.8 |
| 20260504210033 | 80 | 229 | 1.7 | 5.2 | 0.00 | 0.00 | 0.00 | 45 | 1013.8 |
| 20260504205531 | 80 | 121 | 1.7 | 5.2 | 0.00 | 0.00 | 0.00 | 46 | 1014.0 |
| 20260504205032 | 80 | 163 | 1.7 | 6.1 | 0.00 | 0.00 | 0.00 | 44 | 1014.2 |
| 20260504204531 | 80 | 217 | 2.6 | 7.0 | 0.00 | 0.00 | 0.00 | 44 | 1014.4 |
| 20260504204032 | 80 | 246 | 1.7 | 7.0 | 0.00 | 0.00 | 0.00 | 44 | 1014.4 |
| 20260504203532 | 80 | 239 | 1.7 | 6.1 | 0.00 | 0.00 | 0.00 | 44 | 1014.3 |
| 20260504203032 | 80 | 178 | 1.7 | 6.1 | 0.00 | 0.00 | 0.00 | 45 | 1014.4 |
| 20260504202533 | 80 | 252 | 1.7 | 6.1 | 0.00 | 0.00 | 0.00 | 44 | 1014.6 |
| 20260504202526 | 80 | 54 | 2.6 | 10.4 | 0.00 | 0.00 | 0.00 | 44 | 1014.7 |
| 20260504201530 | 80 | 238 | 2.6 | 10.4 | 0.00 | 0.00 | 0.00 | 43 | 1014.9 |
| 20260504201028 | 80 | 204 | 1.7 | 5.2 | 0.00 | 0.00 | 0.00 | 45 | 1014.6 |
| 20260504200528 | 80 | 217 | 1.7 | 6.1 | 0.00 | 0.00 | 0.00 | 45 | 1014.7 |
| 20260504200022 | 80 | 154 | 1.7 | 6.1 | 0.00 | 0.00 | 0.00 | 45 | 1014.9 |
| 20260504195522 | 80 | 66 | 1.7 | 5.2 | 0.00 | 0.00 | 0.00 | 46 | 1014.8 |
| 20260504195513 | 80 | 229 | 2.6 | 7.8 | 0.00 | 0.00 | 0.00 | 44 | 1015.1 |
| 20260504194522 | 80 | 88 | 2.6 | 7.8 | 0.00 | 0.00 | 0.00 | 45 | 1015.1 |
| 20260504194022 | 80 | 219 | 1.7 | 6.1 | 0.00 | 0.00 | 0.00 | 43 | 1015.3 |
| 20260504193522 | 80 | 191 | 1.7 | 7.8 | 0.00 | 0.00 | 0.00 | 42 | 1015.3 |
| 20260504193446 | 80 | 231 | 2.6 | 9.6 | 0.00 | 0.00 | 0.00 | 42 | 1015.4 |
| 20260504193222 | 80 | 207 | 2.6 | 7.8 | 0.00 | 0.00 | 0.00 | 45 | 1015.4 |
| 20260504191522 | 80 | 191 | 1.7 | 7.0 | 0.00 | 0.00 | 0.00 | 44 | 1015.6 |
| 20260504191022 | 80 | 223 | 2.6 | 7.0 | 0.00 | 0.00 | 0.00 | 46 | 1015.8 |
| 20260504190723 | 80 | 178 | 2.6 | 10.4 | 0.00 | 0.00 | 0.00 | 46 | 1015.8 |
| 20260504185520 | 80 | 173 | 1.7 | 7.8 | 0.00 | 0.00 | 0.00 | 45 | 1015.8 |
| 20260504185019 | 80 | 125 | 1.7 | 7.0 | 0.00 | 0.00 | 0.00 | 46 | 1015.7 |
| 20260504184521 | 80 | 271 | 1.7 | 5.2 | 0.00 | 0.00 | 0.00 | 46 | 1015.8 |
| 20260504184513 | 79 | 137 | 1.7 | 5.2 | 0.00 | 0.00 | 0.00 | 45 | 1015.7 |
| 20260504183520 | 79 | 176 | 1.7 | 7.0 | 0.00 | 0.00 | 0.00 | 44 | 1015.8 |
| 20260504183020 | 80 | 236 | 1.7 | 7.0 | 0.00 | 0.00 | 0.00 | 44 | 1016.0 |
| 20260504182519 | 80 | 67 | 1.7 | 7.0 | 0.00 | 0.00 | 0.00 | 46 | 1016.0 |
| 20260504182020 | 79 | 187 | 1.7 | 7.0 | 0.00 | 0.00 | 0.00 | 45 | 1016.1 |
| 20260504181519 | 79 | 215 | 1.7 | 5.2 | 0.00 | 0.00 | 0.00 | 44 | 1016.2 |
| 20260504181020 | 79 | 178 | 1.7 | 7.0 | 0.00 | 0.00 | 0.00 | 45 | 1016.3 |
| 20260504180520 | 79 | 219 | 1.7 | 7.0 | 0.00 | 0.00 | 0.00 | 45 | 1016.5 |
| 20260504180020 | 79 | 216 | 2.6 | 7.0 | 0.00 | 0.00 | 0.00 | 47 | 1016.4 |
| 20260504175519 | 78 | 226 | 2.6 | 7.0 | 0.00 | 0.00 | 0.00 | 44 | 1016.5 |
| 20260504175020 | 78 | 260 | 2.6 | 6.1 | 0.00 | 0.00 | 0.00 | 44 | 1016.5 |
| 20260504174520 | 78 | 211 | 2.6 | 10.4 | 0.00 | 0.00 | 0.00 | 43 | 1016.5 |
| 20260504174018 | 78 | 157 | 2.6 | 10.4 | 0.00 | 0.00 | 0.00 | 46 | 1016.6 |
| 20260504173520 | 78 | 228 | 1.7 | 7.8 | 0.00 | 0.00 | 0.00 | 45 | 1016.6 |
| 20260504173014 | 79 | 249 | 1.7 | 7.8 | 0.00 | 0.00 | 0.00 | 44 | 1016.6 |
| 20260504172513 | 79 | 192 | 1.7 | 4.3 | 0.00 | 0.00 | 0.00 | 45 | 1016.7 |
| 20260504172013 | 79 | 201 | 0.9 | 4.3 | 0.00 | 0.00 | 0.00 | 48 | 1016.7 |
| 20260504171514 | 78 | 200 | 1.7 | 6.1 | 0.00 | 0.00 | 0.00 | 45 | 1016.8 |
| 20260504171012 | 78 | 188 | 1.7 | 6.1 | 0.00 | 0.00 | 0.00 | 45 | 1016.9 |
| 20260504170511 | 78 | 263 | 0.9 | 4.3 | 0.00 | 0.00 | 0.00 | 46 | 1016.8 |
| 20260504150935 | 74 | 224 | 0.9 | 5.2 | 0.00 | 0.00 | 0.00 | 55 | 1017.6 |
| 20260504150435 | 74 | 275 | 0.9 | 5.2 | 0.00 | 0.00 | 0.00 | 56 | 1017.5 |
| 20260504140929 | 69 | 258 | 0.9 | 4.3 | 0.00 | 0.00 | 0.00 | 66 | 1017.4 |
| 20260504140424 | 68 | 197 | 0.9 | 5.2 | 0.00 | 0.00 | 0.00 | 68 | 1017.6 |
| 20260504130407 | 61 | 213 | 0.0 | 0.9 | 0.00 | 0.00 | 0.00 | 91 | 1017.5 |
| 20260504110408 | 53 | 244 | 0.0 | 0.0 | 0.00 | 0.00 | 0.00 | 91 | 1016.7 |
| 20260504100407 | 54 | 244 | 0.0 | 0.0 | 0.00 | 0.00 | 0.00 | 91 | 1016.7 |
| 20260504081333 | 56 | 244 | 0.0 | 0.0 | 0.00 | 0.00 | 0.00 | 88 | 1017.1 |
| 20260504080832 | 56 | 244 | 0.0 | 0.0 | 0.00 | 0.00 | 0.00 | 88 | 1017.2 |
| 20260504080802 | 56 | 244 | 0.0 | 0.0 | 0.00 | 0.00 | 0.00 | 88 | 1017.1 |
| 20260504070332 | 58 | 244 | 0.0 | 0.0 | 0.00 | 0.00 | 0.00 | 85 | 1017.4 |
| 20260504070240 | 58 | 244 | 0.0 | 0.0 | 0.00 | 0.00 | 0.00 | 84 | 1017.2 |